This is the latest recevied weather packets stored in our database for station/object KB2EAR-13. If no packets are shown the sender has not sent any weather packets the latest 10 day(s).
| Time | Temp. | Humidity | Pressure | Rain* | Wind** | Luminosity | Snow |
|---|---|---|---|---|---|---|---|
| 1777743317 | 14.44° C | 47% | 1012.5 hPa | 0 mm | - | - | - |
| 1777743017 | 14.44° C | 49% | 1012.4 hPa | 0 mm | - | - | - |
| 1777742717 | 14.44° C | 51% | 1012.5 hPa | 0 mm | - | - | - |
| 1777742417 | 13.89° C | 52% | 1012.6 hPa | 0 mm | - | - | - |
| 1777742117 | 13.89° C | 50% | 1012.6 hPa | 0 mm | - | - | - |
| 1777741817 | 14.44° C | 51% | 1012.7 hPa | 0 mm | - | - | - |
| 1777741517 | 13.89° C | 54% | 1012.6 hPa | 0 mm | - | - | - |
| 1777741217 | 13.89° C | 52% | 1012.6 hPa | 0 mm | - | - | - |
| 1777740917 | 13.89° C | 50% | 1012.8 hPa | 0 mm | - | - | - |
| 1777740617 | 13.89° C | 51% | 1012.9 hPa | 0 mm | - | - | - |
| 1777740317 | 13.89° C | 50% | 1012.9 hPa | 0 mm | - | - | - |
| 1777740017 | 13.89° C | 53% | 1013 hPa | 0 mm | - | - | - |
| 1777739717 | 13.89° C | 52% | 1013 hPa | 0 mm | - | - | - |
| 1777739417 | 13.89° C | 55% | 1012.9 hPa | 0 mm | - | - | - |
| 1777739117 | 13.89° C | 55% | 1013.2 hPa | 0 mm | - | - | - |
| 1777738817 | 13.89° C | 57% | 1013.3 hPa | 0 mm | - | - | - |
| 1777738517 | 13.33° C | 59% | 1013.2 hPa | 0 mm | - | - | - |
| 1777738217 | 13.33° C | 62% | 1013.2 hPa | 0 mm | - | - | - |
| 1777737936 | 13.33° C | 61% | 1013.3 hPa | 0 mm | - | - | - |
| 1777737731 | 13.33° C | 63% | 1013.2 hPa | 0 mm | - | - | - |
| 1777737637 | 13.33° C | 65% | 1013.3 hPa | 0 mm | - | - | - |
| 1777737317 | 13.33° C | 65% | 1013.3 hPa | 0 mm | - | - | - |
| 1777737017 | 13.33° C | 65% | 1013.3 hPa | 0 mm | - | - | - |
| 1777736717 | 13.33° C | 65% | 1013.4 hPa | 0 mm | - | - | - |
| 1777736417 | 13.33° C | 67% | 1013.4 hPa | 0 mm | - | - | - |
* Rain latest hour (hover to see other rain measurements)
** Current wind speed in m/s (hover to see current wind gust speed)